ASIASTAR

Last updated on Thu Jul 03 2025 00:02:44 GMT+0000 (Coordinated Universal Time)

1 26107U 00016A 25183.59636939 -.00000331 00000+0 00000+0 0 9998 2 26107 8.3092 61.8145 0004975 62.9644 115.7799 1.00269493 92410
UTC large
Height (km)
Speed (km/s)
/
Latitude / Longitude
Inclination (degrees)
Orbital Period (minutes)
Azimuth
Elevation
Range (km)
Doppler Factor

Next 0 passes for location: London (51.5072 / 0.1276)

Sorry there are no passes over London.